Theta_e
305 303 301 301 300 300 300 300 300 300 300 301 301 302 302 303 305 310 309 305 306 309 312 311 311 311 311 312 316 318 321 325 326 326 325 326 325 325 324 323 322 324 324 323 327
306 307 306 305 303 300 300 300 300 300 300 301 301 302 302 303 310 311 312 309 308 307 306 307 308 310 309 311 314 315 316 320 323 323 322 322 323 322 321 320 321 321 322 322 323
301 302 304 306 306 304 301 300 300 300 300 301 301 302 302 304 315 310 309 312 312 311 307 306 309 311 310 311 312 312 315 317 318 318 319 318 318 319 318 319 320 319 320 320 321
308 303 300 302 305 307 306 301 300 300 300 301 301 302 302 306 316 310 312 312 312 311 312 313 312 309 307 309 310 311 312 314 314 314 314 315 315 316 316 317 318 318 318 320 320
309 309 307 301 303 306 307 303 301 301 300 301 302 302 303 306 315 311 311 311 310 310 311 311 311 310 308 308 310 309 310 311 311 312 312 313 313 314 315 315 316 317 317 318 319
309 309 309 305 304 306 307 303 301 301 301 301 304 304 304 304 311 311 310 309 309 309 310 311 311 311 310 309 309 309 309 309 310 311 311 311 312 313 315 315 315 316 317 317 318
309 309 309 307 304 306 304 302 301 301 301 303 308 305 303 304 311 310 309 309 309 309 309 310 310 310 310 308 309 310 309 307 308 309 309 311 311 312 314 314 315 315 315 316 317
308 309 309 308 305 304 302 302 302 302 302 305 307 304 304 311 311 310 310 309 309 309 309 309 309 310 310 310 308 307 305 305 307 308 310 311 311 312 312 313 314 314 313 313 314
308 309 309 307 305 303 307 310 311 311 307 309 308 311 312 313 311 310 310 309 309 309 309 309 309 309 309 307 306 305 308 308 307 308 307 310 309 310 311 312 312 312 313 313 313
307 309 309 306 306 308 311 310 313 312 311 313 311 312 314 314 313 312 310 309 309 310 309 309 309 305 303 305 307 308 309 308 308 308 309 309 308 309 311 311 311 311 312 312 313
305 309 310 306 306 311 311 311 310 310 310 310 309 311 311 314 311 310 309 309 309 309 306 306 304 306 307 306 308 309 309 308 307 309 309 309 309 309 310 310 310 310 311 312 312
305 309 310 306 310 312 311 312 310 310 309 311 310 310 309 310 311 310 310 309 309 307 306 304 305 306 307 307 307 307 307 310 309 309 310 308 309 309 309 309 310 311 311 312 312
309 310 310 306 312 311 310 310 310 311 308 309 310 311 311 310 311 311 310 309 308 307 306 305 307 307 308 308 309 309 310 311 311 310 309 308 306 308 309 310 310 311 311 311 311
310 310 310 306 312 311 312 311 311 310 308 313 311 311 311 310 310 310 310 310 307 307 306 306 307 308 307 308 309 309 310 311 309 308 308 309 308 307 307 307 308 310 310 311 311
309 310 308 309 312 312 312 310 311 312 311 313 310 310 310 309 309 310 310 310 307 307 306 307 308 308 308 308 309 307 310 310 309 308 309 309 308 307 307 307 306 306 310 310 312
308 307 305 311 312 311 309 310 312 310 314 310 309 309 309 309 309 310 310 309 309 307 307 306 308 307 307 310 309 308 308 305 305 306 308 307 308 307 308 308 308 309 311 312 312
307 306 307 312 311 312 308 312 310 310 309 309 308 308 309 310 311 311 310 309 307 307 307 306 306 310 310 309 307 305 304 305 306 305 308 308 307 307 308 308 308 310 312 312 312
310 307 309 312 312 310 311 308 312 311 309 309 309 308 310 310 310 310 309 309 309 308 306 307 309 309 310 309 308 307 305 303 306 309 306 307 308 307 308 310 312 312 312 312 312
313 311 311 311 311 311 311 310 310 311 311 309 308 309 310 310 309 308 309 310 310 309 310 310 311 309 309 308 308 308 307 305 303 306 309 307 307 308 308 308 311 311 311 311 312
312 312 311 309 309 312 308 312 312 310 309 309 309 309 310 309 310 309 308 311 311 310 308 308 310 309 309 309 308 307 306 306 304 310 312 309 308 309 309 309 309 308 309 311 311
311 312 312 310 310 312 307 309 311 310 310 309 308 308 308 310 309 309 309 310 310 310 309 309 308 309 310 309 307 307 307 308 305 307 313 311 309 307 307 306 308 308 310 309 310
311 308 312 311 307 302 306 308 309 309 310 309 308 309 309 309 309 308 308 308 309 310 310 309 306 310 310 308 308 306 307 307 307 307 311 304 311 310 307 307 308 307 308 312 312
307 311 311 310 302 301 303 307 308 309 309 309 309 308 307 308 308 308 309 308 308 308 309 308 307 309 307 307 307 310 310 310 311 312 313 313 310 307 307 308 309 308 310 311 311
305 303 305 307 304 304 304 306 308 308 309 308 307 307 307 308 307 308 308 308 307 308 309 310 305 308 307 307 306 308 309 309 311 313 312 312 310 309 309 309 308 309 310 309 309
303 301 302 298 300 302 303 304 307 307 306 306 306 306 307 307 306 306 306 306 306 306 308 307 310 309 309 310 310 310 310 311 311 312 314 311 310 310 309 309 309 309 309 308 308
301 302 302 301 301 302 302 303 304 305 305 305 306 304 304 305 305 307 305 304 305 306 309 307 307 309 308 309 309 310 310 310 311 311 312 312 313 311 310 309 309 309 308 308 308
299 301 303 300 300 301 300 303 303 302 304 305 304 303 303 304 305 305 305 305 304 305 307 307 306 308 310 310 309 310 310 311 312 313 313 313 311 309 310 310 309 308 308 308 308
Wind_Speed
19 19 17 16 14 13 12 11 9 9 10 11 11 13 15 16 15 13 9 4 4 6 6 7 7 7 7 6 8 5 2 5 4 4 3 8 5 7 8 12 15 6 14 25 29
18 18 19 19 18 15 14 12 11 10 10 11 12 13 15 15 11 4 2 2 1 4 7 7 3 5 5 5 6 4 3 7 0 3 6 13 5 11 9 17 1 13 24 23 25
20 20 19 18 17 18 16 14 13 11 10 10 11 13 14 12 3 4 5 7 8 9 6 2 5 5 4 3 5 3 4 1 3 2 11 11 12 6 9 16 4 18 26 29 26
23 22 21 19 17 17 18 17 14 11 10 9 9 12 11 5 3 2 3 4 5 6 6 6 3 4 3 4 1 1 4 1 1 6 7 7 21 10 17 27 15 16 24 21 20
23 24 23 20 18 17 18 16 13 10 9 9 9 9 7 3 3 5 3 3 5 6 5 4 6 3 3 2 4 4 1 3 6 7 9 13 13 24 24 25 17 9 16 17 18
26 24 24 22 18 17 18 14 11 10 8 6 7 7 4 3 7 6 2 1 4 6 3 3 2 2 3 2 2 1 3 7 7 11 11 8 15 20 22 15 23 22 21 19 21
25 25 24 22 19 17 15 11 8 7 6 6 7 6 7 8 7 6 3 2 2 2 3 3 3 1 0 2 1 3 4 6 7 5 6 17 13 13 21 20 23 12 8 10 12
26 24 23 21 18 16 11 6 6 5 6 6 7 5 6 4 9 6 5 4 4 3 5 4 5 2 1 1 4 2 4 3 4 3 4 7 4 4 9 16 15 16 11 10 11
26 24 21 19 16 11 7 5 3 3 4 4 4 4 4 2 7 7 9 5 4 4 5 6 3 1 3 3 4 5 1 1 7 3 3 1 4 7 22 16 18 16 14 14 14
25 22 18 15 11 8 5 7 7 5 4 1 4 4 1 2 1 6 7 7 4 3 1 3 3 4 4 4 2 3 2 3 4 5 6 5 6 5 16 16 17 16 15 15 13
25 19 14 10 6 9 9 1 3 1 10 7 8 10 14 7 0 6 4 5 4 2 2 4 5 2 5 6 4 2 3 3 4 4 7 9 12 11 10 11 15 12 15 17 13
23 16 10 4 5 7 9 6 5 6 8 8 11 17 15 12 5 9 5 5 2 1 1 5 2 6 3 3 3 4 3 2 4 5 5 8 20 16 8 6 6 12 19 19 19
21 15 7 2 4 6 9 8 6 7 2 7 2 3 1 10 6 7 7 4 3 1 2 4 4 3 2 1 2 1 3 2 5 4 4 7 9 3 2 7 17 18 19 19 14
18 11 5 5 6 5 3 6 8 5 4 3 3 1 3 2 4 5 9 5 1 6 3 4 3 0 2 2 4 1 4 2 4 6 3 5 7 4 3 4 5 19 21 19 18
17 10 3 7 5 3 6 9 5 1 4 3 1 2 3 4 5 3 11 13 8 5 4 6 2 2 1 3 4 5 2 2 3 2 2 4 3 6 8 6 5 7 16 18 14
13 9 4 5 4 6 10 3 1 5 1 3 3 5 4 2 4 6 5 7 2 5 2 7 3 3 6 2 1 3 3 4 4 2 1 5 4 4 2 2 7 13 17 15 15
13 10 7 5 5 11 6 1 4 4 3 4 3 4 1 4 4 4 2 3 4 3 2 2 2 1 2 2 3 4 6 4 5 3 4 4 4 11 9 16 7 9 16 16 17
9 9 7 6 10 10 4 4 4 3 2 2 3 7 3 4 2 5 3 0 5 3 2 4 3 3 1 3 5 2 6 4 5 3 5 1 7 7 6 9 12 15 18 20 21
5 9 8 8 11 11 1 4 5 1 5 4 6 2 2 3 3 6 4 1 1 2 3 3 4 3 2 4 6 2 3 3 2 2 2 5 6 11 15 12 10 16 18 21 25
5 4 10 11 12 8 4 2 2 1 4 0 3 2 2 3 2 4 2 1 3 1 2 4 3 4 3 0 2 5 6 2 3 2 5 5 6 11 9 10 9 9 13 28 37
5 0 7 12 8 4 3 4 3 7 6 2 4 3 4 3 3 3 4 1 1 2 4 2 3 4 1 4 7 1 2 2 3 4 4 6 9 5 9 9 7 9 20 27 36
5 2 7 10 5 2 1 1 5 2 4 3 2 2 4 3 3 4 6 4 1 4 3 3 4 4 9 6 2 6 6 5 4 4 5 4 15 3 8 4 6 14 20 28 32
8 4 5 7 2 3 6 5 3 4 2 2 2 1 2 2 3 4 3 6 7 3 4 4 1 3 7 4 3 2 4 3 1 3 15 9 10 5 7 11 25 24 23 26 32
7 4 5 7 5 2 5 4 4 5 1 4 3 2 2 1 2 4 2 3 7 2 7 6 5 7 7 6 3 8 13 14 13 5 9 13 25 19 18 17 12 17 22 28 29
8 2 2 4 2 3 1 3 3 4 6 6 2 5 3 3 2 5 3 4 11 13 4 7 6 5 10 14 13 17 19 17 15 18 13 21 18 24 20 15 8 17 22 26 30
5 5 4 4 6 3 1 1 2 4 3 4 1 6 4 3 7 15 4 4 6 2 2 1 2 2 6 12 12 13 15 14 16 17 18 18 20 19 16 15 15 16 22 26 30
6 5 3 3 3 2 2 1 2 6 7 7 5 4 4 11 13 19 21 20 11 5 3 4 2 4 5 3 7 9 8 6 4 5 5 9 12 14 11 14 18 20 24 28 29
Wind_Direction
352 349 344 340 336 329 322 316 314 314 314 316 319 320 320 321 316 307 303 266 255 219 228 226 233 217 223 204 193 179 200 214 223 139 228 289 355 277 293 269 318 333 329 344 347
345 344 342 339 337 331 323 315 310 308 309 313 317 319 323 328 330 18 54 59 253 259 257 235 212 182 181 193 197 169 194 214 38 58 300 287 217 308 323 304 305 329 323 341 341
349 342 338 335 334 331 326 316 308 304 304 308 313 318 326 335 337 28 100 103 80 65 65 109 153 141 177 183 189 185 193 272 37 359 298 297 296 295 301 287 54 336 323 320 329
355 350 342 334 331 329 327 318 309 304 300 304 309 319 325 330 158 102 118 88 50 46 58 77 92 113 110 190 241 173 245 248 233 292 297 289 308 284 263 268 303 307 310 316 323
350 348 345 338 329 326 326 319 307 300 294 299 307 317 325 298 234 169 166 41 18 360 23 72 72 108 128 294 335 153 44 357 300 276 268 283 277 283 262 287 308 319 319 319 315
343 342 342 340 332 327 327 320 305 297 290 291 307 309 303 274 173 163 186 8 10 10 342 16 40 5 137 165 154 242 245 272 248 244 241 237 262 259 271 305 301 305 302 297 293
341 338 337 340 336 331 329 319 303 297 288 292 305 298 274 239 200 185 198 243 307 20 6 325 294 216 357 356 307 273 298 306 249 263 247 227 259 255 286 304 297 340 346 310 297
339 337 334 339 339 341 339 326 310 294 283 287 307 298 258 177 191 189 217 273 251 286 301 283 295 281 182 332 24 64 45 25 277 311 286 172 283 296 360 336 323 334 345 359 356
338 335 335 340 343 357 2 349 328 282 261 279 299 298 273 224 206 237 219 275 302 311 295 262 289 75 59 70 12 3 115 269 312 333 307 96 290 331 337 334 316 324 328 331 336
335 335 338 344 355 33 39 51 74 99 78 330 267 309 51 22 230 231 237 276 294 334 27 76 82 73 38 71 239 285 343 316 262 312 6 305 236 285 303 308 300 305 314 319 326
338 335 342 354 42 57 50 31 14 332 308 244 276 271 293 296 317 226 270 234 282 24 47 21 70 184 227 199 199 200 192 232 275 314 0 302 291 292 273 279 284 302 319 312 305
339 336 345 9 83 72 67 75 22 306 309 298 270 260 261 278 295 237 262 261 128 273 74 23 205 213 245 192 186 168 164 248 290 278 321 276 284 288 259 229 228 304 303 296 296
339 337 348 150 126 113 86 54 14 339 285 301 293 265 48 215 235 271 218 212 170 238 191 165 233 183 189 87 89 306 160 249 235 288 259 324 290 128 248 261 280 289 291 281 285
344 347 359 154 141 127 68 358 325 317 54 304 333 69 159 217 271 269 225 192 177 216 192 234 269 10 325 256 138 314 205 236 306 17 312 54 288 307 272 290 286 286 289 272 294
350 357 9 153 130 85 339 328 310 271 59 268 2 52 26 219 304 281 226 210 206 185 120 252 216 206 133 224 179 223 166 288 269 262 40 291 289 265 351 282 292 288 310 294 285
6 15 65 119 96 356 326 328 183 47 171 338 34 356 346 0 307 296 246 217 208 146 223 246 240 206 193 131 59 56 20 19 45 84 26 248 186 255 254 195 308 302 300 292 308
28 45 84 63 1 337 336 155 44 103 335 334 310 352 325 314 341 328 325 31 192 132 250 289 210 67 107 89 8 78 54 344 340 357 229 190 294 257 271 288 268 269 290 308 314
36 49 57 17 352 351 356 59 85 318 289 288 311 309 164 357 12 331 354 122 28 72 105 172 287 147 101 186 200 202 150 160 243 234 243 19 248 254 240 247 248 258 274 298 302
57 33 17 1 360 355 2 63 174 274 303 285 329 358 345 6 360 12 353 249 104 53 162 162 267 297 213 191 135 163 188 196 143 266 340 225 286 291 279 257 258 263 278 292 311
326 341 13 5 346 350 72 196 207 299 315 264 214 223 270 276 292 15 284 293 169 193 108 198 292 241 269 39 259 164 166 67 9 292 258 265 259 239 299 282 261 280 305 315 316
352 134 2 350 348 30 117 232 279 307 339 258 221 246 239 253 210 221 257 116 295 84 58 128 153 286 337 213 207 268 216 92 149 172 237 301 264 197 245 265 288 294 312 315 316
359 21 349 349 37 27 106 277 295 266 340 314 348 228 211 215 249 235 223 210 137 137 188 187 164 232 233 247 225 180 207 163 151 237 226 214 264 210 253 326 303 298 321 331 334
348 311 344 1 85 333 317 304 279 330 307 318 306 45 50 258 269 227 250 126 78 120 174 188 218 322 324 5 340 173 179 174 298 247 253 254 264 17 328 306 311 317 322 326 327
356 4 3 51 73 79 360 283 305 324 287 337 283 95 29 297 237 298 319 313 349 161 290 177 188 187 221 237 182 278 267 267 262 253 280 240 280 284 287 284 299 305 317 321 320
18 47 6 313 6 346 245 285 298 328 338 325 317 35 2 293 288 253 243 299 294 290 330 161 231 216 255 268 267 261 264 262 245 249 252 282 282 290 288 287 275 300 307 309 312
27 6 343 288 298 291 245 126 305 0 294 289 21 334 330 241 232 276 271 202 235 299 97 132 275 270 275 257 258 262 255 245 249 250 254 262 267 268 275 302 293 289 305 306 301
19 350 333 295 324 345 244 293 285 354 276 254 350 314 276 278 285 273 263 249 236 200 152 171 189 306 268 332 318 280 270 202 218 241 213 245 274 315 296 289 287 293 298 292 292